Preston, MN

8:53 AM CST on February 19, 2017 (GMT -0600)
Preston

Weather History for KFKA - November, 2012

Change the Weather History Date:

Sunday, November 25, 2012

  Actual Average (KRST) Record (KRST)
Temperature  
Mean Temperature 32 °F -  
Max Temperature 39 °F 35 °F 61 °F (1960)
Min Temperature 26 °F 21 °F -12 °F (1977)
Degree Days  
Heating Degree Days 32    
Moisture  
Dew Point 21 °F    
Average Humidity 64    
Maximum Humidity 73    
Minimum Humidity 49    
Precipitation  
Precipitation 0.00 in - - ()
Sea Level Pressure  
Sea Level Pressure 29.93 in    
Wind  
Wind Speed 10 mph (WNW)    
Max Wind Speed 16 mph    
Max Gust Speed 23 mph    
Visibility 10 miles    
Events      
Averages and records for this station are not official NWS values.
T = Trace of Precipitation, MM = Missing Value Source: NWS Daily Summary

Daily Weather History Graph

Daily Weather History Graph

Search for Another Location

Airport or City:

Trip Planner

Search our weather history database for the weather conditions in past years. The results will help you decide how hot, cold, wet, or windy it might be!

Date:

Astronomy

Nov. 25, 2012 Rise Set
Actual Time 7:16 AM CST 4:35 PM CST
Civil Twilight 6:44 AM CST 5:07 PM CST
Nautical Twilight 6:08 AM CST 5:42 PM CST
Astronomical Twilight 5:34 AM CST 6:17 PM CST
Moon 2:55 PM CST (11/25) 4:26 AM CST (11/25)
Length of Visible Light 10h 23m
Length of Day
9h 19m
Waxing Gibbous, 93% of the Moon is Illuminated
Nov 25
Waxing Gibbous
Nov 28
Full
Dec 6
Last Quarter
Dec 13
New
Dec 19
First Quarter

Hourly Weather History & Observations

Time (CST) Temp. Windchill Dew Point Humidity Pressure Visibility Wind Dir Wind Speed Gust Speed Precip Events Conditions
12:09 AM 30.7 °F 20.9 °F 19.0 °F 62% 29.81 in 10.0 mi SSW 12.7 mph - N/A   Mostly Cloudy
12:30 AM 30.4 °F 21.0 °F 18.9 °F 62% 29.80 in 10.0 mi SSW 11.5 mph - N/A   Scattered Clouds
12:50 AM 30.2 °F 21.9 °F 19.0 °F 63% 29.80 in 10.0 mi SSW 9.2 mph - N/A   Clear
1:10 AM 29.3 °F 21.5 °F 19.2 °F 66% 29.80 in 10.0 mi SSW 8.1 mph - N/A   Clear
1:30 AM 28.9 °F 21.1 °F 19.0 °F 67% 29.79 in 10.0 mi SSW 8.1 mph - N/A   Clear
1:50 AM 28.4 °F 22.2 °F 19.0 °F 68% 29.80 in 10.0 mi SSW 5.8 mph - N/A   Clear
2:10 AM 28.0 °F 20.0 °F 19.2 °F 70% 29.80 in 10.0 mi SW 8.1 mph - N/A   Clear
2:30 AM 27.5 °F 23.6 °F 18.5 °F 69% 29.81 in 10.0 mi WSW 3.5 mph - N/A   Clear
2:49 AM 27.0 °F - 18.7 °F 71% 29.81 in 10.0 mi Calm Calm - N/A   Clear
3:10 AM 27.1 °F 20.7 °F 18.7 °F 70% 29.80 in 10.0 mi WSW 5.8 mph - N/A   Clear
3:30 AM 27.5 °F 20.2 °F 18.9 °F 70% 29.80 in 10.0 mi WSW 6.9 mph - N/A   Clear
3:50 AM 27.7 °F 19.6 °F 18.5 °F 68% 29.80 in 10.0 mi West 8.1 mph - N/A   Clear
4:10 AM 26.4 °F 17.3 °F 18.3 °F 71% 29.81 in 10.0 mi West 9.2 mph - N/A   Clear
4:29 AM 27.5 °F 18.6 °F 19.4 °F 72% 29.81 in 10.0 mi WNW 9.2 mph - N/A   Mostly Cloudy
4:50 AM 30.0 °F 21.1 °F 20.1 °F 67% 29.82 in 10.0 mi NW 10.4 mph - N/A   Overcast
5:10 AM 30.6 °F 21.2 °F 19.8 °F 64% 29.83 in 10.0 mi NW 11.5 mph - N/A   Overcast
5:30 AM 29.3 °F 19.6 °F 19.4 °F 67% 29.83 in 10.0 mi NW 11.5 mph - N/A   Scattered Clouds
5:50 AM 30.7 °F 22.6 °F 20.1 °F 65% 29.83 in 10.0 mi NNW 9.2 mph - N/A   Mostly Cloudy
6:10 AM 31.5 °F 22.9 °F 20.3 °F 63% 29.84 in 10.0 mi NNW 10.4 mph - N/A   Overcast
6:30 AM 30.9 °F 22.2 °F 20.3 °F 65% 29.84 in 10.0 mi North 10.4 mph - N/A   Scattered Clouds
6:50 AM 30.6 °F 23.1 °F 20.3 °F 66% 29.86 in 10.0 mi NNW 8.1 mph - N/A   Clear
7:09 AM 30.2 °F 22.6 °F 20.8 °F 68% 29.87 in 10.0 mi NNW 8.1 mph - N/A   Scattered Clouds
7:50 AM 31.1 °F 20.9 °F 21.9 °F 69% 29.88 in 10.0 mi NNW 13.8 mph 17.3 mph N/A   Overcast
8:10 AM 31.8 °F 22.8 °F 22.1 °F 67% 29.89 in 10.0 mi North 11.5 mph - N/A   Overcast
8:30 AM 32.0 °F 21.6 °F 21.7 °F 66% 29.89 in 10.0 mi North 15.0 mph - N/A   Overcast
8:50 AM 32.2 °F 23.2 °F 22.3 °F 67% 29.91 in 10.0 mi NNW 11.5 mph - N/A   Overcast
9:10 AM 32.2 °F 21.4 °F 21.9 °F 66% 29.92 in 10.0 mi NW 16.1 mph 23.0 mph N/A   Overcast
9:30 AM 32.2 °F 22.7 °F 21.7 °F 65% 29.93 in 10.0 mi NNW 12.7 mph - N/A   Overcast
9:50 AM 32.4 °F 22.5 °F 21.6 °F 64% 29.93 in 10.0 mi NNW 13.8 mph 23.0 mph N/A   Overcast
10:10 AM 32.9 °F 22.8 °F 21.7 °F 64% 29.94 in 10.0 mi NNW 15.0 mph 20.7 mph N/A   Mostly Cloudy
10:29 AM 34.2 °F 26.2 °F 21.9 °F 61% 29.94 in 10.0 mi NNW 10.4 mph - N/A   Mostly Cloudy
10:50 AM 33.8 °F 25.3 °F 21.7 °F 61% 29.95 in 10.0 mi NW 11.5 mph - N/A   Mostly Cloudy
11:10 AM 34.5 °F 25.3 °F 21.7 °F 60% 29.94 in 10.0 mi NW 13.8 mph - N/A   Scattered Clouds
11:30 AM 34.3 °F 27.0 °F 21.6 °F 60% 29.94 in 10.0 mi WNW 9.2 mph - N/A   Scattered Clouds
11:50 AM 35.2 °F 26.6 °F 21.7 °F 58% 29.94 in 10.0 mi NW 12.7 mph - N/A   Clear
12:10 PM 35.6 °F 27.1 °F 21.6 °F 57% 29.94 in 10.0 mi NW 12.7 mph 17.3 mph N/A   Clear
12:30 PM 36.5 °F 29.2 °F 21.6 °F 55% 29.94 in 10.0 mi WNW 10.4 mph - N/A   Clear
12:50 PM 37.6 °F 31.6 °F 21.4 °F 52% 29.94 in 10.0 mi NNW 8.1 mph 17.3 mph N/A   Clear
1:09 PM 38.3 °F 30.5 °F 21.0 °F 50% 29.93 in 10.0 mi NNW 12.7 mph 19.6 mph N/A   Clear
1:30 PM 38.3 °F 30.5 °F 21.0 °F 50% 29.93 in 10.0 mi NW 12.7 mph 16.1 mph N/A   Clear
1:50 PM 39.2 °F 32.5 °F 21.6 °F 49% 29.93 in 10.0 mi WNW 10.4 mph - N/A   Clear
2:10 PM 39.4 °F 33.2 °F 21.7 °F 49% 29.93 in 10.0 mi NW 9.2 mph - N/A   Clear
2:30 PM 39.2 °F 31.6 °F 21.7 °F 50% 29.94 in 10.0 mi NW 12.7 mph - N/A   Clear
2:50 PM 38.5 °F 31.6 °F 21.2 °F 50% 29.94 in 10.0 mi WNW 10.4 mph - N/A   Clear
3:10 PM 37.9 °F 31.5 °F 21.6 °F 52% 29.94 in 10.0 mi WNW 9.2 mph - N/A   Clear
3:30 PM 37.4 °F 30.8 °F 20.8 °F 51% 29.94 in 10.0 mi NW 9.2 mph - N/A   Clear
3:50 PM 36.5 °F 29.7 °F 20.5 °F 52% 29.96 in 10.0 mi NW 9.2 mph - N/A   Clear
4:10 PM 34.7 °F 27.5 °F 20.5 °F 56% 29.96 in 10.0 mi WNW 9.2 mph - N/A   Clear
4:30 PM 33.3 °F 26.4 °F 20.8 °F 60% 29.98 in 10.0 mi NW 8.1 mph - N/A   Clear
4:50 PM 32.4 °F 26.0 °F 20.8 °F 63% 29.98 in 10.0 mi NNW 6.9 mph - N/A   Clear
5:10 PM 32.0 °F 26.4 °F 20.5 °F 63% 29.99 in 10.0 mi NNW 5.8 mph - N/A   Clear
5:50 PM 32.0 °F 23.6 °F 21.0 °F 64% 30.01 in 10.0 mi NW 10.4 mph - N/A   Clear
6:10 PM 30.9 °F 23.5 °F 20.8 °F 66% 30.02 in 10.0 mi NW 8.1 mph - N/A   Scattered Clouds
6:30 PM 31.1 °F 23.7 °F 21.0 °F 66% 30.01 in 10.0 mi NNW 8.1 mph - N/A   Scattered Clouds
6:50 PM 31.1 °F 23.1 °F 21.2 °F 67% 30.02 in 10.0 mi NNW 9.2 mph - N/A   Mostly Cloudy
7:10 PM 31.1 °F 25.4 °F 21.6 °F 68% 30.02 in 10.0 mi North 5.8 mph - N/A   Overcast
7:30 PM 31.5 °F 24.9 °F 21.7 °F 67% 30.03 in 10.0 mi NNW 6.9 mph - N/A   Overcast
7:50 PM 31.1 °F 21.4 °F 21.4 °F 67% 30.04 in 10.0 mi NW 12.7 mph - N/A   Mostly Cloudy
8:10 PM 30.2 °F 20.8 °F 20.3 °F 67% 30.05 in 10.0 mi NW 11.5 mph - N/A   Mostly Cloudy
8:30 PM 28.8 °F 21.7 °F 19.9 °F 70% 30.05 in 10.0 mi NW 6.9 mph - N/A   Scattered Clouds
8:50 PM 27.1 °F 21.8 °F 19.4 °F 73% 30.06 in 10.0 mi WNW 4.6 mph - N/A   Clear
9:10 PM 27.5 °F 22.2 °F 19.8 °F 73% 30.07 in 10.0 mi WNW 4.6 mph - N/A   Clear
9:50 PM 27.7 °F 23.8 °F 19.4 °F 71% 30.07 in 10.0 mi WSW 3.5 mph - N/A   Mostly Cloudy
10:10 PM 28.0 °F 21.7 °F 20.1 °F 72% 30.07 in 10.0 mi WSW 5.8 mph - N/A   Overcast
10:30 PM 28.9 °F 22.8 °F 20.7 °F 71% 30.08 in 10.0 mi WSW 5.8 mph - N/A   Overcast
10:50 PM 29.1 °F 21.3 °F 21.0 °F 72% 30.09 in 10.0 mi SW 8.1 mph - N/A   Overcast
11:10 PM 29.3 °F 23.2 °F 21.0 °F 71% 30.09 in 10.0 mi WSW 5.8 mph - N/A   Overcast
11:30 PM 29.8 °F 23.0 °F 21.0 °F 70% 30.10 in 10.0 mi WSW 6.9 mph - N/A   Overcast
11:50 PM 30.2 °F 22.6 °F 21.0 °F 69% 30.11 in 10.0 mi West 8.1 mph - N/A   Overcast